OPS 4682 DEB, 29060

Orbit data source: Space-Track

OPS 4682 DEB, 29060 is space debris in LEO originally from a launch on Sat, 03 Apr 1965 UTC launched from the Air Force Western Test Range (AFWTR). Debris objects in space refer to the collection of defunct objects orbiting the Earth. Examples of debris include non-operational satellites, rocket bodies, and fragments generated from explosions, collisions, or faulty payload assembly.

Loading next visibility...
Identifier
29060, 1965-027BK
Orbit
LEO
Country
Flag of USUS
Related business
Manufacturer
Unknown
Mission
Spacecraft
Bus & Motor
Unknown
Mass
Unknown
Launch date (UTC)
1965-04-03 (61 years ago)
Launch vehicle
Unknown
Launch site
Air Force Western Test Range (AFWTR)
Object type
Payload
Rocket body
Debris
Shape & HBR
Unknown shape, 0.1 m
Radar Cross Section
Medium (>0.1 m² and <1 m²)

Expand to show TLE details & history
Last TLE update: 22 hours ago

TLE from 22 hours ago
0 OPS 4682 DEB
1 29060U 65027BK  26221.19530704  .00000078  00000-0  25081-3 0  9993
2 29060  90.2458  11.4119 0032148  67.7891 109.1769 12.94838125470973
Epoch: 2026-08-09T04:41Z
TLE epoch observation values (Epoch: 2026-08-09T04:41:14.528Z)
Latitude
2.58965°
Longitude
163.41664°
Altitude
1,293.118 km
Speed
7.206 km/s
True Right ascension
12h 45m 41s
True Declination
2° 34' 31"
Sunlit
Object was in daylight at epoch
Visualization orbit readout
Latitude
Unknown
Longitude
Unknown
Altitude
Unknown
Speed
Unknown
Apparent Right ascension
Unknown
Apparent Declination
Unknown
Sunlit
N/A
Visualization observer readout
Local Sidereal Time
16:31:11
Azimuth
Unknown
Elevation
Unknown
Doppler factor
Unknown
Orbital elements
Apogee altitude
1,304.131 km
Perigee altitude
1,254.895 km
Semi-major axis
7,657.65 km
Eccentricity
0.00321
Inclination
90.2458°
RAAN
11.4119°
Arg. of periapsis
67.7891°
True anomaly
109.52439°
Mean anomaly
109.1769°
Eccentric anomaly
109.35069°
Mean motion
3.23892 °/min
Orbital period
111.15 mins
BSTAR
0.00025081
Loading maneuver chart data...
Computing Atmospheric mass density...
Loading historical data...
Loading historical data...
Loading historical data...
Loading historical data...
Loading historical data...
Loading historical data...
Loading historical data...

Documentation

Showing up to 5 results
|